{"data":{"norad_id":67417,"epoch":"2026-09-19T14:45:23.050368Z","epoch_age_seconds":151813,"freshness":"FRESH","line1":"1 67417U 26005P   26262.61485012  .00015617  00000+0  57567-3 0  9995","line2":"2 67417  43.0018 222.9008 0001522 266.9831  93.0846 15.27588082 38356","mean_motion":15.27588082,"eccentricity":0.0001522,"inclination_deg":43.0018,"raan_deg":222.9008,"arg_perigee_deg":266.9831,"mean_anomaly_deg":93.0846,"bstar":0.00057567,"rev_number":3835,"period_min":94.266249977198,"perigee_km":481.98062689034,"apogee_km":484.0691645714,"semimajor_km":6861.1618957309,"source":"CELESTRAK","updated_at":"2026-09-20T09:00:43.521679Z"}}